GPS BIIR-2 (PRN 13)

Last updated on Fri Dec 12 2025 00:03:17 GMT+0000 (Coordinated Universal Time)

1 24876U 97035A 25344.73835795 .00000022 00000+0 00000+0 0 9998 2 24876 55.8943 105.9471 0096757 57.0036 303.9018 2.00563589208175
UTC large
Height (km)
Speed (km/s)
/
Latitude / Longitude
Inclination (degrees)
Orbital Period (minutes)
Azimuth
Elevation
Range (km)
Doppler Factor

Next 0 passes for location: London (51.5072 / 0.1276)

Sorry there are no passes over London.